When you browse on this site, cookies collect data to enhance your experience and personalize the content and advertising you see.
Visit our Privacy Policy to learn more. By continuing to use the site, you agree to this use of cookies and data.
  • în România
  • Lista ţărilor
  • Pe 7 zile
  • Temperatura apei
  • Meteo pe hartă
  • Widget-uri
  • user-avatar
    Intrare

    Meteo pe oră la Morpeth

    Astăzi, 9 Decembrie, Luni

    Timp Temperatura Precipitaţii Vânt Presiune Umiditate
    00:00 +3°C° 0.6 mm 7 m/s 731 mmHg 83%
    01:00 +2°C° 0.1 mm 8 m/s 732 mmHg 82%
    02:00 +2°C° 0.1 mm 10 m/s 733 mmHg 80%
    03:00 +2°C° 0.1 mm 12 m/s 734 mmHg 78%
    04:00 +2°C° 0.4 mm 12 m/s 737 mmHg 77%
    05:00 +2°C° 0.4 mm 12 m/s 739 mmHg 76%
    06:00 +3°C° 0.4 mm 13 m/s 742 mmHg 74%
    07:00 +2°C° 0 mm 12 m/s 744 mmHg 74%
    08:00 +1°C° 0 mm 11 m/s 746 mmHg 74%
    09:00 +1°C° 0 mm 10 m/s 748 mmHg 73%
    10:00 +1°C° 0 mm 10 m/s 750 mmHg 70%
    11:00 +1°C° 0 mm 9 m/s 751 mmHg 68%
    12:00 +2°C° 0 mm 9 m/s 753 mmHg 65%
    13:00 +1°C° 0 mm 8 m/s 754 mmHg 67%
    14:00 +2°C° 0 mm 7 m/s 754 mmHg 69%
    15:00 +1°C° 0 mm 6 m/s 755 mmHg 71%
    16:00 +1°C° 0 mm 5 m/s 756 mmHg 73%
    17:00 0°C° 0 mm 5 m/s 757 mmHg 76%
    18:00 0°C° 0 mm 4 m/s 758 mmHg 78%
    19:00 +1°C° 0 mm 3 m/s 758 mmHg 79%
    20:00 +1°C° 0 mm 3 m/s 758 mmHg 80%
    21:00 +2°C° 0 mm 2 m/s 759 mmHg 80%
    22:00 +1°C° 0 mm 3 m/s 758 mmHg 81%
    23:00 +1°C° 0 mm 3 m/s 758 mmHg 82%

    Mâine, 10 Decembrie, Marţi

    Timp Temperatura Precipitaţii Vânt Presiune Umiditate
    00:00 0°C° 0 mm 4 m/s 758 mmHg 83%
    01:00 +1°C° 0 mm 5 m/s 757 mmHg 84%
    02:00 +2°C° 0 mm 5 m/s 756 mmHg 84%
    03:00 +2°C° 0 mm 6 m/s 755 mmHg 84%
    04:00 +3°C° 0 mm 7 m/s 753 mmHg 84%
    05:00 +2°C° 0 mm 8 m/s 752 mmHg 83%
    06:00 +2°C° 0 mm 8 m/s 751 mmHg 82%
    07:00 +3°C° 0.1 mm 9 m/s 749 mmHg 82%
    08:00 +5°C° 0.1 mm 10 m/s 748 mmHg 82%
    09:00 +4°C° 0.1 mm 11 m/s 746 mmHg 82%
    10:00 +5°C° 0.2 mm 12 m/s 744 mmHg 82%
    11:00 +7°C° 0.2 mm 13 m/s 742 mmHg 81%
    12:00 +8°C° 0.2 mm 14 m/s 741 mmHg 81%
    13:00 +9°C° 0.6 mm 13 m/s 739 mmHg 82%
    14:00 +9°C° 0.6 mm 12 m/s 738 mmHg 84%
    15:00 +11°C° 0.6 mm 11 m/s 737 mmHg 85%
    16:00 +8°C° 0.8 mm 11 m/s 738 mmHg 85%
    17:00 +6°C° 0.8 mm 10 m/s 739 mmHg 84%
    18:00 +3°C° 0.8 mm 10 m/s 740 mmHg 83%
    19:00 +3°C° 0 mm 10 m/s 740 mmHg 80%
    20:00 +3°C° 0 mm 10 m/s 741 mmHg 77%
    21:00 +3°C° 0 mm 10 m/s 742 mmHg 74%
    22:00 +2°C° 0 mm 9 m/s 743 mmHg 74%
    23:00 +2°C° 0 mm 9 m/s 743 mmHg 74%

    Poimâine, 11 Decembrie, Miercuri

    Timp Temperatura Precipitaţii Vânt Presiune Umiditate
    00:00 +1°C° 0 mm 9 m/s 744 mmHg 74%
    01:00 +1°C° 0 mm 9 m/s 744 mmHg 73%
    02:00 +1°C° 0 mm 9 m/s 744 mmHg 72%
    03:00 +1°C° 0 mm 9 m/s 744 mmHg 71%
    04:00 +1°C° 0 mm 8 m/s 744 mmHg 72%
    05:00 +1°C° 0 mm 8 m/s 744 mmHg 74%
    06:00 +1°C° 0 mm 8 m/s 743 mmHg 75%
    07:00 +1°C° 0.1 mm 8 m/s 743 mmHg 79%
    08:00 +1°C° 0.1 mm 8 m/s 742 mmHg 84%
    09:00 +1°C° 0.1 mm 8 m/s 742 mmHg 88%
    10:00 +2°C° 0 mm 7 m/s 741 mmHg 83%
    11:00 +3°C° 0 mm 7 m/s 741 mmHg 78%
    12:00 +3°C° 0 mm 7 m/s 740 mmHg 73%
    13:00 +3°C° 0 mm 6 m/s 740 mmHg 77%
    14:00 +2°C° 0 mm 6 m/s 740 mmHg 80%
    15:00 +2°C° 0 mm 6 m/s 739 mmHg 83%
    16:00 +1°C° 0 mm 5 m/s 739 mmHg 83%
    17:00 +1°C° 0 mm 5 m/s 740 mmHg 83%
    18:00 0°C° 0 mm 5 m/s 740 mmHg 83%
    19:00 -1°C° 0 mm 6 m/s 740 mmHg 81%
    20:00 -1°C° 0 mm 7 m/s 740 mmHg 79%
    21:00 -1°C° 0 mm 8 m/s 740 mmHg 76%
    22:00 0°C° 0 mm 8 m/s 740 mmHg 78%
    23:00 0°C° 0 mm 8 m/s 740 mmHg 79%

    12 Decembrie, Joi

    Timp Temperatura Precipitaţii Vânt Presiune Umiditate
    00:00 0°C° 0 mm 8 m/s 740 mmHg 81%
    01:00 0°C° 0 mm 8 m/s 740 mmHg 82%
    02:00 0°C° 0 mm 8 m/s 740 mmHg 82%
    03:00 -1°C° 0 mm 7 m/s 740 mmHg 83%
    04:00 -1°C° 0 mm 7 m/s 740 mmHg 83%
    05:00 -1°C° 0 mm 7 m/s 739 mmHg 83%
    06:00 -1°C° 0 mm 6 m/s 739 mmHg 83%
    07:00 -1°C° 0 mm 6 m/s 738 mmHg 86%
    08:00 +1°C° 0 mm 6 m/s 737 mmHg 88%
    09:00 +1°C° 0 mm 6 m/s 736 mmHg 90%
    10:00 +2°C° 0 mm 7 m/s 734 mmHg 89%
    11:00 +1°C° 0 mm 8 m/s 732 mmHg 89%
    12:00 +2°C° 0 mm 9 m/s 730 mmHg 88%
    13:00 +3°C° 0.7 mm 9 m/s 728 mmHg 89%
    14:00 +3°C° 0.7 mm 9 m/s 726 mmHg 89%
    15:00 +3°C° 0.7 mm 9 m/s 724 mmHg 90%
    16:00 +5°C° 0.6 mm 8 m/s 722 mmHg 90%
    17:00 +5°C° 0.6 mm 7 m/s 721 mmHg 89%
    18:00 +5°C° 0.6 mm 6 m/s 720 mmHg 89%
    19:00 +4°C° 0.3 mm 8 m/s 720 mmHg 88%
    20:00 +2°C° 0.3 mm 10 m/s 720 mmHg 86%
    21:00 +1°C° 0.3 mm 11 m/s 720 mmHg 85%
    22:00 0°C° 0.1 mm 12 m/s 720 mmHg 83%
    23:00 0°C° 0.1 mm 13 m/s 720 mmHg 81%

    13 Decembrie, Vineri

    Timp Temperatura Precipitaţii Vânt Presiune Umiditate
    00:00 0°C° 0.1 mm 14 m/s 719 mmHg 79%
    01:00 0°C° 0.9 mm 14 m/s 719 mmHg 82%
    02:00 0°C° 0.9 mm 15 m/s 719 mmHg 84%
    03:00 +1°C° 0.9 mm 15 m/s 718 mmHg 87%
    04:00 +1°C° 0.6 mm 15 m/s 719 mmHg 84%
    05:00 +1°C° 0.6 mm 14 m/s 720 mmHg 81%
    06:00 +1°C° 0.6 mm 14 m/s 721 mmHg 78%
    07:00 +1°C° 0 mm 13 m/s 722 mmHg 77%
    08:00 0°C° 0 mm 13 m/s 724 mmHg 77%
    09:00 0°C° 0 mm 12 m/s 725 mmHg 76%
    10:00 0°C° 0.1 mm 12 m/s 726 mmHg 77%
    11:00 0°C° 0.1 mm 12 m/s 727 mmHg 78%
    12:00 +2°C° 0.1 mm 11 m/s 728 mmHg 80%
    13:00 +2°C° 0 mm 10 m/s 728 mmHg 81%
    14:00 +2°C° 0 mm 9 m/s 729 mmHg 83%
    15:00 +2°C° 0 mm 8 m/s 729 mmHg 84%
    16:00 +1°C° 0.2 mm 9 m/s 730 mmHg 85%
    17:00 +1°C° 0.2 mm 9 m/s 731 mmHg 86%
    18:00 0°C° 0.2 mm 10 m/s 731 mmHg 87%
    19:00 0°C° 0 mm 9 m/s 731 mmHg 84%
    20:00 0°C° 0 mm 9 m/s 732 mmHg 80%
    21:00 0°C° 0 mm 8 m/s 732 mmHg 76%
    22:00 0°C° 0 mm 8 m/s 732 mmHg 76%
    23:00 0°C° 0 mm 8 m/s 732 mmHg 77%

    14 Decembrie, Sâmbătă

    Timp Temperatura Precipitaţii Vânt Presiune Umiditate
    00:00 0°C° 0 mm 8 m/s 732 mmHg 78%
    01:00 0°C° 0 mm 7 m/s 732 mmHg 79%
    02:00 -1°C° 0 mm 7 m/s 732 mmHg 81%
    03:00 -1°C° 0 mm 6 m/s 732 mmHg 83%
    04:00 -1°C° 0 mm 6 m/s 733 mmHg 86%
    05:00 0°C° 0 mm 5 m/s 733 mmHg 88%
    06:00 0°C° 0 mm 5 m/s 733 mmHg 91%
    07:00 0°C° 0 mm 4 m/s 734 mmHg 90%
    08:00 0°C° 0 mm 4 m/s 734 mmHg 90%
    09:00 0°C° 0 mm 4 m/s 735 mmHg 89%
    10:00 +1°C° 0 mm 4 m/s 735 mmHg 87%
    11:00 +1°C° 0 mm 5 m/s 734 mmHg 84%
    12:00 +2°C° 0 mm 5 m/s 734 mmHg 81%
    13:00 +2°C° 0.2 mm 5 m/s 733 mmHg 83%
    14:00 +1°C° 0.2 mm 5 m/s 732 mmHg 85%
    15:00 +1°C° 0.2 mm 4 m/s 732 mmHg 86%
    16:00 +1°C° 1 mm 5 m/s 731 mmHg 88%
    17:00 +1°C° 1 mm 6 m/s 731 mmHg 89%
    18:00 +1°C° 1 mm 6 m/s 731 mmHg 90%
    19:00 0°C° 0.5 mm 8 m/s 731 mmHg 87%
    20:00 +1°C° 0.5 mm 10 m/s 731 mmHg 83%
    21:00 +1°C° 0.5 mm 11 m/s 732 mmHg 79%
    22:00 +1°C° 0.1 mm 11 m/s 733 mmHg 79%
    23:00 +1°C° 0.1 mm 11 m/s 734 mmHg 78%
    Arată mai mult